LA6LOA Weather Reports


time (UTC)temp
C
wind
direction
speed
KPH
gust
KPH
rain 1hr
cm
rain 24hr
cm
rain mn
cm
humidity
%
barometer
mb
20260507141554 5 319 9.7 14.5 0.00 0.00 0.00 100 1015.4
20260507141054 5 316 11.3 12.9 0.00 0.00 0.00 100 1015.4
20260507140554 6 317 9.7 14.5 0.00 0.00 0.00 100 1015.4
20260507140054 5 319 9.7 16.1 0.00 0.00 0.00 100 1015.3
20260507135554 5 312 14.5 19.3 0.00 0.00 0.00 100 1015.3
20260507135054 5 329 16.1 22.5 0.00 0.00 0.00 100 1015.2
20260507134554 6 323 14.5 20.9 0.00 0.00 0.00 100 1015.2
20260507134054 5 316 19.3 19.3 0.00 0.00 0.00 100 1015.1
20260507133554 5 313 9.7 17.7 0.00 0.00 0.00 100 1015.0
20260507133054 5 306 16.1 19.3 0.00 0.00 0.00 100 1015.0
20260507132554 5 313 11.3 19.3 0.00 0.00 0.00 100 1014.9
20260507132054 5 299 14.5 20.9 0.00 0.00 0.00 100 1014.8
20260507131554 5 303 11.3 20.9 0.00 0.00 0.00 100 1014.8
20260507131054 5 289 16.1 20.9 0.00 0.00 0.00 100 1014.8
20260507130554 5 285 14.5 22.5 0.00 0.00 0.00 100 1014.8
20260507130054 5 291 16.1 24.1 0.00 0.00 0.00 100 1014.8
20260507125554 6 286 16.1 24.1 0.00 0.00 0.00 100 1014.6
20260507125054 6 271 17.7 25.7 0.00 0.00 0.00 100 1014.5
20260507124554 6 268 20.9 25.7 0.00 0.00 0.00 100 1014.4
20260507124054 6 292 16.1 30.6 0.00 0.00 0.00 100 1014.3
20260507123554 6 292 17.7 32.2 0.00 0.00 0.00 100 1014.3
20260507123054 6 288 20.9 30.6 0.00 0.00 0.00 100 1014.2
20260507122554 6 324 12.9 30.6 0.00 0.00 0.00 100 1014.1
20260507122054 6 286 19.3 25.7 0.00 0.00 0.00 100 1013.9
20260507121554 6 279 24.1 30.6 0.00 0.00 0.00 100 1013.9
20260507121054 7 281 14.5 24.1 0.00 0.00 0.00 100 1013.9
20260507120555 7 271 17.7 29.0 0.00 0.00 0.00 100 1013.9
20260507120054 7 307 14.5 20.9 0.00 0.00 0.00 100 1013.8
20260507115554 7 230 11.3 20.9 0.00 0.00 0.00 100 1013.8
20260507115054 7 209 11.3 22.5 0.00 0.00 0.00 100 1013.6
20260507114554 7 153 14.5 20.9 0.00 0.00 0.00 100 1013.5
20260507114054 6 212 11.3 17.7 0.00 0.00 0.00 100 1013.5
20260507113554 6 135 8.0 19.3 0.00 0.00 0.00 100 1013.4
20260507113054 7 177 11.3 14.5 0.00 0.00 0.00 100 1013.3
20260507112554 7 181 9.7 17.7 0.00 0.00 0.00 100 1013.2
20260507112054 7 147 0.0 22.5 0.00 0.00 0.00 100 1013.2
20260507111554 7 167 8.0 19.3 0.00 0.00 0.00 100 1013.1
20260507111054 7 151 12.9 24.1 0.00 0.00 0.00 100 1013.1
20260507110554 7 174 14.5 22.5 0.00 0.00 0.00 100 1013.0
20260507110054 7 192 14.5 22.5 0.00 0.00 0.00 100 1013.1
20260507105555 7 120 6.4 19.3 0.00 0.00 0.00 100 1013.0
20260507105055 7 226 12.9 20.9 0.00 0.00 0.00 100 1013.0
20260507104555 7 189 12.9 19.3 0.00 0.00 0.00 100 1013.0
20260507104055 7 164 9.7 19.3 0.00 0.00 0.00 100 1013.0
20260507103555 7 156 9.7 17.7 0.00 0.00 0.00 100 1013.1
20260507103055 7 156 6.4 12.9 0.00 0.00 0.00 100 1013.1
20260507102555 7 182 9.7 14.5 0.00 0.00 0.00 100 1013.1
20260507102055 7 94 1.6 9.7 0.00 0.00 0.00 100 1013.2
20260507101555 7 116 0.0 11.3 0.00 0.00 0.00 100 1013.2
20260507101055 6 129 1.6 11.3 0.00 0.00 0.00 100 1013.2
20260507100555 6 258 0.0 0.0 0.00 0.00 0.00 100 1013.2
20260507100055 7 258 0.0 0.0 0.00 0.00 0.00 100 1013.2
20260507095555 7 258 0.0 0.0 0.00 0.00 0.00 100 1013.2
20260507095055 7 258 0.0 8.0 0.00 0.00 0.00 100 1013.4
20260507094555 7 303 6.4 8.0 0.00 0.00 0.00 100 1013.4
20260507094055 7 320 6.4 12.9 0.00 0.00 0.00 100 1013.4
20260507093555 7 113 3.2 16.1 0.00 0.00 0.00 100 1013.5
20260507093055 7 215 11.3 17.7 0.00 0.00 0.00 100 1013.4
20260507092555 7 241 16.1 19.3 0.00 0.00 0.00 100 1013.2
20260507092055 8 312 1.6 19.3 0.00 0.00 0.00 100 1013.3
20260507091555 8 250 11.3 20.9 0.00 0.00 0.00 100 1013.2
20260507091055 8 140 14.5 19.3 0.00 0.00 0.00 100 1013.2
20260507090555 8 161 6.4 20.9 0.00 0.00 0.00 100 1013.2
20260507090055 8 137 0.0 17.7 0.00 0.00 0.00 100 1013.3
20260507085555 7 229 17.7 17.7 0.00 0.00 0.00 100 1013.3
20260507085055 8 216 3.2 12.9 0.00 0.00 0.00 100 1013.2
20260507084555 7 118 0.0 19.3 0.00 0.00 0.00 100 1013.2
20260507084055 7 223 0.0 14.5 0.00 0.00 0.00 100 1013.2
20260507083555 7 188 12.9 12.9 0.00 0.00 0.00 100 1013.1
20260507083055 7 188 9.7 19.3 0.00 0.00 0.00 100 1013.1
20260507082555 7 192 11.3 17.7 0.00 0.00 0.00 100 1013.0
20260507082055 7 182 8.0 17.7 0.00 0.00 0.00 100 1013.0
20260507081555 7 187 8.0 16.1 0.00 0.00 0.00 100 1012.9
20260507081055 7 126 6.4 20.9 0.00 0.00 0.00 100 1012.9
20260507080555 7 201 14.5 14.5 0.00 0.00 0.00 100 1012.9
20260507080055 7 125 14.5 16.1 0.00 0.00 0.00 100 1012.8
20260507075555 7 182 11.3 14.5 0.00 0.00 0.00 100 1012.7
20260507075055 7 181 9.7 12.9 0.00 0.00 0.00 100 1012.7
20260507074555 7 182 11.3 14.5 0.00 0.00 0.00 100 1012.6
20260507074055 7 180 8.0 14.5 0.00 0.00 0.00 100 1012.6
20260507073555 7 202 6.4 16.1 0.00 0.00 0.00 100 1012.5
20260507073055 7 198 11.3 17.7 0.00 0.00 0.00 100 1012.5
20260507072555 7 187 12.9 14.5 0.00 0.00 0.00 100 1012.4
20260507072055 7 164 1.6 14.5 0.00 0.00 0.00 100 1012.3
20260507071555 7 191 12.9 12.9 0.00 0.00 0.00 100 1012.2
20260507071055 6 157 1.6 16.1 0.00 0.00 0.00 100 1012.1
20260507070555 7 149 8.0 14.5 0.00 0.00 0.00 100 1011.9
20260507070055 7 157 8.0 11.3 0.00 0.00 0.00 100 1011.8
20260507065555 6 194 9.7 11.3 0.00 0.00 0.00 100 1011.6
20260507065055 6 178 9.7 12.9 0.00 0.00 0.00 100 1011.4
20260507064555 6 153 12.9 12.9 0.00 0.00 0.00 100 1011.2
20260507064055 6 158 9.7 14.5 0.00 0.00 0.00 100 1011.1
20260507063555 6 157 8.0 14.5 0.00 0.00 0.00 100 1011.0
20260507063055 5 160 9.7 14.5 0.00 0.00 0.00 100 1011.0
20260507062555 6 136 11.3 12.9 0.00 0.00 0.00 100 1010.9
20260507062055 5 158 1.6 14.5 0.00 0.00 0.00 100 1010.9
20260507061556 6 217 6.4 11.3 0.00 0.00 0.00 100 1010.8
20260507061055 5 136 3.2 11.3 0.00 0.00 0.00 100 1010.8
20260507060556 5 199 6.4 9.7 0.00 0.00 0.00 100 1010.8
20260507060056 6 104 1.6 11.3 0.00 0.00 0.00 100 1010.7
20260507055556 5 192 9.7 11.3 0.00 0.00 0.00 100 1010.6
20260507055056 5 150 8.0 12.9 0.00 0.00 0.00 100 1010.6
20260507054556 5 153 6.4 8.0 0.00 0.00 0.00 100 1010.6
20260507054056 5 143 0.0 8.0 0.00 0.00 0.00 100 1010.6
20260507053556 5 161 1.6 9.7 0.00 0.00 0.00 100 1010.5
20260507053056 5 167 0.0 8.0 0.00 0.00 0.00 100 1010.5
20260507052556 5 142 1.6 14.5 0.00 0.00 0.00 100 1010.4
20260507052056 5 153 9.7 12.9 0.00 0.00 0.00 100 1010.4
20260507051556 5 144 1.6 11.3 0.00 0.00 0.00 100 1010.4
20260507051056 5 198 1.6 12.9 0.00 0.00 0.00 100 1010.4
20260507050556 5 164 0.0 0.0 0.00 0.00 0.00 100 1010.3
20260507050056 5 164 0.0 9.7 0.00 0.00 0.00 100 1010.4
20260507045556 5 119 0.0 12.9 0.00 0.00 0.00 100 1010.3
20260507045056 5 143 9.7 11.3 0.00 0.00 0.00 100 1010.3
20260507044556 5 165 9.7 9.7 0.00 0.00 0.00 100 1010.3
20260507044056 5 198 1.6 11.3 0.00 0.00 0.00 100 1010.2
20260507043556 5 208 0.0 12.9 0.00 0.00 0.00 100 1010.2
20260507043056 6 147 0.0 12.9 0.00 0.00 0.00 100 1010.2
20260507042556 6 205 6.4 14.5 0.00 0.00 0.00 100 1010.1
20260507042056 5 174 0.0 14.5 0.00 0.00 0.00 100 1010.1
20260507041556 5 206 8.0 12.9 0.00 0.00 0.00 100 1010.1
20260507041056 5 191 1.6 14.5 0.00 0.00 0.00 100 1010.1
20260507040556 5 201 0.0 14.5 0.00 0.00 0.00 100 1010.1
20260507040056 5 184 0.0 12.9 0.00 0.00 0.00 100 1010.0
20260507035556 5 158 8.0 14.5 0.00 0.00 0.00 100 1010.0
20260507035056 4 201 12.9 12.9 0.00 0.00 0.00 100 1010.0
20260507034556 4 135 0.0 17.7 0.00 0.00 0.00 100 1010.0
20260507034056 3 123 6.4 16.1 0.00 0.00 0.00 100 1010.0
20260507033556 3 149 1.6 12.9 0.00 0.00 0.00 100 1009.9
20260507033056 3 205 8.0 19.3 0.00 0.00 0.00 100 1010.0
20260507032556 3 123 1.6 20.9 0.00 0.00 0.00 100 1009.9
20260507032056 3 147 0.0 16.1 0.00 0.00 0.00 100 1009.9
20260507031556 3 156 8.0 17.7 0.00 0.00 0.00 100 1009.9
20260507031056 3 195 6.4 24.1 0.00 0.00 0.00 100 1009.9
20260507030556 3 154 8.0 22.5 0.00 0.00 0.00 100 1009.9
20260507030056 3 181 16.1 24.1 0.00 0.00 0.00 100 1009.8
20260507025556 3 185 9.7 20.9 0.00 0.00 0.00 100 1009.8
20260507025056 2 174 16.1 20.9 0.00 0.00 0.00 100 1009.7
20260507024556 2 156 12.9 20.9 0.00 0.00 0.00 100 1009.7
20260507024056 2 198 19.3 22.5 0.00 0.00 0.00 100 1009.7
20260507023556 2 178 9.7 16.1 0.00 0.00 0.00 100 1009.7
20260507023056 2 187 8.0 19.3 0.00 0.00 0.00 100 1009.7
20260507022556 2 153 8.0 17.7 0.00 0.00 0.00 100 1009.7
20260507022056 2 140 9.7 24.1 0.00 0.00 0.00 100 1009.7
20260507021556 2 195 14.5 22.5 0.00 0.00 0.00 100 1009.7
20260507021056 2 185 9.7 19.3 0.00 0.00 0.00 100 1009.6
20260507020556 2 188 6.4 12.9 0.00 0.00 0.00 100 1009.7
20260507020056 2 198 6.4 17.7 0.00 0.00 0.00 100 1009.7
20260507015556 2 170 11.3 22.5 0.00 0.00 0.00 100 1009.7
20260507015056 2 59 8.0 19.3 0.00 0.00 0.00 100 1009.7
20260507014556 2 164 11.3 20.9 0.00 0.00 0.00 100 1009.7
20260507014056 2 122 6.4 14.5 0.00 0.00 0.00 100 1009.7
20260507013556 2 106 1.6 17.7 0.00 0.00 0.00 100 1009.7
20260507013056 2 163 1.6 16.1 0.00 0.00 0.00 100 1009.7
20260507012557 2 170 11.3 19.3 0.00 0.00 0.00 100 1009.6
20260507012057 2 157 9.7 19.3 0.00 0.00 0.00 100 1009.6
20260507011557 2 154 9.7 22.5 0.00 0.00 0.00 100 1009.5
20260507011057 2 151 8.0 22.5 0.00 0.00 0.00 100 1009.5
20260507010557 2 223 9.7 20.9 0.00 0.00 0.00 100 1009.5
20260507010057 2 127 8.0 12.9 0.00 0.00 0.00 100 1009.5
20260507005557 2 81 0.0 17.7 0.00 0.00 0.00 100 1009.5
20260507005057 2 195 12.9 22.5 0.00 0.00 0.00 100 1009.5
20260507004557 2 142 9.7 12.9 0.00 0.00 0.00 100 1009.5
20260507004057 2 146 1.6 16.1 0.00 0.00 0.00 100 1009.4
20260507003557 2 212 0.0 14.5 0.00 0.00 0.00 100 1009.5
20260507003057 2 105 0.0 9.7 0.00 0.00 0.00 100 1009.4
20260507002557 2 73 0.0 9.7 0.00 0.00 0.00 100 1009.4
20260507002057 2 164 0.0 14.5 0.00 0.00 0.00 100 1009.4
20260507001557 2 129 9.7 11.3 0.00 0.00 0.00 100 1009.4
20260507001057 2 132 0.0 9.7 0.00 0.00 0.00 100 1009.4
20260507000557 2 220 0.0 14.5 0.00 0.00 0.00 100 1009.3
20260507000057 2 210 8.0 11.3 0.00 0.00 0.00 100 1009.3
20260506235557 2 168 1.6 11.3 0.00 0.00 0.00 100 1009.3
20260506235057 2 146 0.0 17.7 0.00 0.00 0.00 100 1009.3
20260506234623 2 139 1.6 8.0 0.00 0.00 0.00 100 1009.3
20260506234057 2 196 0.0 1.6 0.00 0.00 0.00 100 1009.3
20260506233557 2 146 0.0 9.7 0.00 0.00 0.00 100 1009.2
20260506233057 2 154 8.0 14.5 0.00 0.00 0.00 100 1009.2
20260506232557 2 172 1.6 11.3 0.00 0.00 0.00 100 1009.2
20260506232057 2 160 0.0 14.5 0.00 0.00 0.00 100 1009.1
20260506231557 2 167 9.7 16.1 0.00 0.00 0.00 100 1009.2
20260506231057 1 163 0.0 9.7 0.00 0.00 0.00 100 1009.1
20260506230557 1 161 3.2 11.3 0.00 0.00 0.00 100 1009.1
20260506230057 1 161 0.0 0.0 0.00 0.00 0.00 100 1009.1
20260506225557 1 161 0.0 12.9 0.00 0.00 0.00 100 1009.0
20260506225057 1 177 6.4 12.9 0.00 0.00 0.00 100 1009.0
20260506224557 1 101 0.0 6.4 0.00 0.00 0.00 100 1009.0
20260506224057 1 127 1.6 9.7 0.00 0.00 0.00 100 1009.1
20260506223557 1 104 0.0 8.0 0.00 0.00 0.00 100 1009.0
20260506223057 1 144 1.6 8.0 0.00 0.00 0.00 100 1009.1
20260506222557 0 147 1.6 8.0 0.00 0.00 0.00 100 1009.0
20260506222057 1 355 0.0 0.0 0.00 0.00 0.00 100 1009.1
20260506221557 1 355 0.0 0.0 0.00 0.00 0.00 100 1009.1
20260506221057 1 355 0.0 0.0 0.00 0.00 0.00 100 1009.1
20260506220557 1 355 0.0 0.0 0.00 0.00 0.00 100 1009.1
20260506220057 1 355 0.0 0.0 0.00 0.00 0.00 100 1009.1
20260506215557 1 355 0.0 0.0 0.00 0.00 0.00 100 1009.1
20260506215057 1 355 0.0 0.0 0.00 0.00 0.00 100 1009.1
20260506214557 1 355 0.0 0.0 0.00 0.00 0.00 100 1009.1
20260506214057 1 355 0.0 0.0 0.00 0.00 0.00 100 1009.1
20260506213557 1 355 0.0 0.0 0.00 0.00 0.00 100 1009.1
20260506213057 1 355 0.0 0.0 0.00 0.00 0.00 100 1009.1
20260506212557 1 355 0.0 0.0 0.00 0.00 0.00 100 1009.1
20260506212057 1 355 0.0 0.0 0.00 0.00 0.00 100 1009.2
20260506211557 1 355 0.0 0.0 0.00 0.00 0.00 100 1009.2
20260506211058 1 355 0.0 0.0 0.00 0.00 0.00 100 1009.2
20260506210557 1 355 0.0 0.0 0.00 0.00 0.00 100 1009.3
20260506210057 1 355 0.0 0.0 0.00 0.00 0.00 100 1009.4
20260506205558 1 355 0.0 0.0 0.00 0.00 0.00 100 1009.5
20260506205057 1 355 0.0 0.0 0.00 0.00 0.00 100 1009.6
20260506204558 1 355 0.0 0.0 0.00 0.00 0.00 100 1009.7
20260506204058 1 355 0.0 0.0 0.00 0.00 0.00 100 1009.8
20260506203558 1 355 0.0 0.0 0.00 0.00 0.00 100 1009.8
20260506203058 2 355 0.0 0.0 0.00 0.00 0.00 100 1009.8
20260506202558 2 355 0.0 0.0 0.00 0.00 0.00 100 1009.8
20260506202058 2 355 0.0 0.0 0.00 0.00 0.00 100 1009.7
20260506201558 3 355 0.0 0.0 0.00 0.00 0.00 100 1009.7
20260506201058 3 355 0.0 0.0 0.00 0.00 0.00 100 1009.7
20260506200558 3 355 0.0 0.0 0.00 0.00 0.00 100 1009.7
20260506200058 3 355 0.0 0.0 0.00 0.00 0.00 100 1009.8
20260506195558 4 355 0.0 0.0 0.00 0.00 0.00 100 1009.8
20260506195058 4 355 0.0 0.0 0.00 0.00 0.00 100 1009.7
20260506194558 4 355 0.0 0.0 0.00 0.00 0.00 100 1009.7
20260506194058 5 355 0.0 0.0 0.00 0.00 0.00 100 1009.7
20260506193558 4 355 0.0 0.0 0.00 0.00 0.00 100 1009.7
20260506193058 5 355 0.0 0.0 0.00 0.00 0.00 100 1009.7
20260506192558 5 355 0.0 0.0 0.00 0.00 0.00 100 1009.7
20260506192058 5 355 0.0 0.0 0.00 0.00 0.00 100 1009.6
20260506191558 5 355 0.0 0.0 0.00 0.00 0.00 100 1009.6
20260506191058 5 355 0.0 0.0 0.00 0.00 0.00 100 1009.5
20260506190558 5 355 0.0 0.0 0.00 0.00 0.00 100 1009.6
20260506190058 5 355 0.0 0.0 0.00 0.00 0.00 100 1009.5
20260506185558 5 355 0.0 0.0 0.00 0.00 0.00 100 1009.5
20260506185058 5 355 0.0 9.7 0.00 0.00 0.00 100 1009.5
20260506184558 5 326 0.0 0.0 0.00 0.00 0.00 100 1009.5
20260506184058 5 326 0.0 6.4 0.00 0.00 0.00 100 1009.5
20260506183558 5 327 0.0 8.0 0.00 0.00 0.00 100 1009.4
20260506183058 5 333 8.0 9.7 0.00 0.00 0.00 100 1009.5
20260506182558 5 354 8.0 11.3 0.00 0.00 0.00 100 1009.4
20260506182058 5 343 9.7 11.3 0.00 0.00 0.00 100 1009.5
20260506181558 5 327 8.0 9.7 0.00 0.00 0.00 100 1009.5
20260506181058 5 337 8.0 11.3 0.00 0.00 0.00 100 1009.4
20260506180558 5 341 8.0 11.3 0.00 0.00 0.00 100 1009.4
20260506180058 5 351 9.7 12.9 0.00 0.00 0.00 100 1009.4
20260506175558 5 334 11.3 11.3 0.00 0.00 0.00 100 1009.4
20260506175058 5 352 9.7 12.9 0.00 0.00 0.00 100 1009.4
20260506174558 5 331 11.3 12.9 0.00 0.00 0.00 100 1009.5
20260506174058 5 338 9.7 11.3 0.00 0.00 0.00 100 1009.5
20260506173558 5 345 9.7 9.7 0.00 0.00 0.00 100 1009.4
20260506173058 5 0 9.7 12.9 0.00 0.00 0.00 100 1009.4
20260506172558 5 348 12.9 14.5 0.00 0.00 0.00 100 1009.4
20260506172058 5 344 12.9 16.1 0.00 0.00 0.00 100 1009.3
20260506171558 5 348 11.3 12.9 0.00 0.00 0.00 100 1009.3
20260506171058 5 7 8.0 14.5 0.00 0.00 0.00 100 1009.3
20260506170558 5 8 8.0 16.1 0.00 0.00 0.00 100 1009.2
20260506170058 5 348 14.5 17.7 0.00 0.00 0.00 100 1009.2
20260506165558 5 1 11.3 16.1 0.00 0.00 0.00 100 1009.2
20260506165058 4 352 11.3 17.7 0.00 0.00 0.00 100 1009.1
20260506164558 5 344 17.7 17.7 0.00 0.00 0.00 100 1009.1
20260506164058 5 5 12.9 16.1 0.00 0.00 0.00 100 1009.1
20260506163558 5 348 14.5 16.1 0.00 0.00 0.00 100 1009.0
20260506163058 5 18 14.5 17.7 0.00 0.00 0.00 100 1009.0
20260506162558 5 352 16.1 17.7 0.00 0.00 0.00 100 1008.9
20260506162058 5 5 11.3 17.7 0.00 0.00 0.00 100 1008.9
20260506161558 4 358 16.1 19.3 0.00 0.00 0.00 100 1008.9
20260506161059 4 355 17.7 19.3 0.00 0.00 0.00 100 1008.8
20260506160559 4 9 12.9 20.9 0.00 0.00 0.00 100 1008.7
20260506160059 5 352 19.3 20.9 0.00 0.00 0.00 100 1008.7
20260506155559 5 343 14.5 19.3 0.00 0.00 0.00 100 1008.6
20260506155059 5 5 12.9 19.3 0.00 0.00 0.00 100 1008.5
20260506154559 5 1 12.9 20.9 0.00 0.00 0.00 100 1008.5
20260506154059 5 8 14.5 19.3 0.00 0.00 0.00 100 1008.5
20260506153559 5 8 12.9 19.3 0.00 0.00 0.00 100 1008.4
20260506153059 5 354 16.1 20.9 0.00 0.00 0.00 100 1008.3
20260506152559 5 343 17.7 20.9 0.00 0.00 0.00 100 1008.2
20260506152059 4 352 16.1 19.3 0.00 0.00 0.00 100 1008.2
20260506151559 5 12 14.5 19.3 0.00 0.00 0.00 100 1008.0
20260506151059 5 352 16.1 17.7 0.00 0.00 0.00 100 1007.9
20260506150559 5 343 16.1 19.3 0.00 0.00 0.00 100 1007.9
20260506150059 5 358 14.5 19.3 0.00 0.00 0.00 100 1008.0
20260506145559 5 352 16.1 20.9 0.00 0.00 0.00 100 1008.0
20260506145059 5 336 14.5 19.3 0.00 0.00 0.00 100 1008.0
20260506144559 5 4 14.5 20.9 0.00 0.00 0.00 100 1008.1
20260506144059 5 354 14.5 19.3 0.00 0.00 0.00 100 1008.1
20260506143559 5 8 12.9 17.7 0.00 0.00 0.00 100 1008.0
20260506143059 5 11 11.3 20.9 0.00 0.00 0.00 100 1008.1
20260506142559 5 343 17.7 20.9 0.00 0.00 0.00 100 1008.0
20260506142059 5 0 16.1 20.9 0.00 0.00 0.00 100 1008.1